Regional Weather Roundup
Issued by NWS State College, PA

Home | Current Version | Previous Version | Graphics & Text | Print | Product List | Glossary On
Versions: 1 2 3 4 5 6 7 8 9 10 11 12 13 14 15 16 17 18 19 20 21 22 23 24 25 26 27 28 29 30 31 32 33 34 35 36 37 38 39 40 41 42 43 44 45 46 47 48 49 50
637
ASUS41 KCTP 281403
RWRCTP

REGIONAL WEATHER ROUNDUP
NATIONAL WEATHER SERVICE STATE COLLEGE PA
1000 AM EDT TUE MAR 28 2017

Note: "fair" indicates few or no clouds below 12,000 feet with no
significant weather and/or obstructions to visibility.

* = STATION THAT DOES NOT REPORT PRECIPITATION /E.G. RAIN...SNOW...ETC/
    THUNDER OR FOG.

PAZ002>004-007>009-013>016-020>023-029>032-281500-
WESTERN PENNSYLVANIA

CITY           SKY/WX    TMP DP  RH WIND       PRES   REMARKS
ERIE           CLOUDY    47  46  97 NE6       29.93S FOG
MEADVILLE      CLOUDY    49  47  93 NE8       29.90S FOG
FRANKLIN*      CLOUDY    48  46  93 N3        29.91R VSB 1/2
NEW CASTLE     CLOUDY    52  51  97 N5        29.90R FOG
BEAVER COUNTY  CLOUDY    54  52  94 CALM      29.88S FOG
BUTLER*        CLOUDY    55  52  88 CALM      29.89S
PITTSBURGH INT CLOUDY    57  57 100 S5        29.87S
PITTSBURGH     CLOUDY    56  53  90 S8        29.87S FOG
INDIANA*       CLOUDY    55  55 100 W5        29.91S FOG
LATROBE        LGT RAIN  55  55 100 SW6       29.89S
WASHINGTON CO* CLOUDY    55  54  94 CALM      29.90S
$$

PAZ004>006-010>012-017>019-024>028-033>037-041-042-045-046-049>053-281500-
CENTRAL PENNSYLVANIA

CITY           SKY/WX    TMP DP  RH WIND       PRES   REMARKS
BRADFORD       LGT RAIN  49  49 100 N5        29.90R
DUBOIS         LGT RAIN  50  48  93 CALM      29.88S FOG
CLEARFIELD       N/A    N/A N/A N/A MISG      29.89R
JOHNSTOWN      LGT RAIN  53  53 100 W5        29.88S
ALTOONA        RAIN      54  53  97 S3        29.89R FOG
STATE COLLEGE  LGT RAIN  50  50 100 CALM      29.88S
WILLIAMSPORT   LGT RAIN  49  47  93 CALM      29.88S
SELINSGROVE    CLOUDY    52  50  93 CALM      29.89R FOG
FT INDIANTOWN  CLOUDY    51  51 100 NE6       29.90R FOG
CAPITAL CITY   CLOUDY    53  50  89 CALM      29.88F FOG
HARRISBURG     LGT RAIN  52  51  97 E6        29.87S FOG
YORK           CLOUDY    52  52 100 NE3       29.87S FOG
$$

PAZ038>040-043-044-047-048-054-055-060>062-067>071-281500-
EASTERN PENNSYLVANIA

CITY           SKY/WX    TMP DP  RH WIND       PRES   REMARKS
SCRANTON       CLOUDY    54  51  90 NE5       29.87F FOG
MOUNT POCONO   FOG       46  46 100 E7        29.89S VSB<1/4
ALLENTOWN      LGT RAIN  49  45  86 E10       29.91R FOG
QUAKERTOWN*    CLOUDY    46  46 100 NE5       29.91F VSB 3/4
READING        FOG       51  51 100 NE3       29.88S VSB 1/4
LANCASTER      CLOUDY    53  53 100 E12       29.87F FOG
COATESVILLE    CLOUDY    52  52 100 NE3       29.89S FOG
POTTSTOWN      CLOUDY    48  47  96 NE6       29.90S FOG
BLUE BELL      CLOUDY    45  45 100 E9        29.87F
DOYLESTOWN     LGT RAIN  44  44 100 NE6       29.89F
WILLOW GROVE   NOT AVBL
NORTH PHILA    LGT RAIN  48  46  93 E12       29.91F FOG
PHILADELPHIA   CLOUDY    50  48  93 E10       29.90R
$$




USA.gov is the U.S. government's official web portal to all federal, state and local government web resources and services.